GEOEYE 1

Last updated on Fri Apr 25 2025 00:02:25 GMT+0000 (Coordinated Universal Time)

1 33331U 08042A 25113.91401542 .00001046 00000+0 20593-3 0 9997 2 33331 98.1234 188.1771 0003050 306.0500 54.0420 14.64602103888777
UTC large
Height (km)
Speed (km/s)
/
Latitude / Longitude
Inclination (degrees)
Orbital Period (minutes)
Azimuth
Elevation
Range (km)
Doppler Factor

Next 0 passes for location: London (51.5072 / 0.1276)

Sorry there are no passes over London.